User: anonymous   Login
Location: Newark
(43.0000°N, 1.6781°W)
Time: 12:48:27
(UTC+00:00)
Language:

XW-2B - Orbit

View from above orbital plane
View from above orbital plane
View from above satellite
View from above satellite

Ground track
Ground track

The orbit data is extracted from the following two-line orbital elements,

1 40911U 15049N   22342.29816124  .00007400  00000-0  32683-3 0  9996
2 40911  97.4936 345.2811 0014032 104.7967 315.3433 15.21941867399279
Epoch (UTC): 08 December 2022 07:09:21
Eccentricity: 0.0014032
inclination: 97.4936°
perigee height: 490 km
apogee height: 509 km
right ascension of ascending node: 345.2811°
argument of perigee: 104.7967°
revolutions per day: 15.21941867
mean anomaly at epoch: 315.3433°
orbit number at epoch: 39927

The dashed part of the orbit path shows where the satellite is in the earth's shadow,  

DLR